Pellston Regional Airport of Emmet County Airport
KPLN : now visible

Airfield :











YOU CAN JOIN US ON...

 
LOGIN :

Register | Disclaimer

   EN    FR    IT 

 









Legend :    VFR   Marginal VFR   IFR   Intensive IFR   Very Intensive IFR
Visi :
Ceiling :
>= 8 km
>= 3000ft
5 to 8 km
1000 to 3000 ft
1500m to 5 km
500 to 1000 ft
800 to 1500m
200 to 500 ft
< 800m
< 200 ft
Symbols :   Thunderstorms  Fog  Heavy snow  Heavy precipitations  Wind > 20 kt







- Airport Elevation : 721 ft
- IATA code : PLN


KPLN - Pellston Regional of Emmet County

CURRENT METAR :
  • 211754Z AUTO 33010G18KT 10SM CLR 24/14 A2998 RMK AO2 SLP152 T02440139 10250 20178 51004

EXPIRED METARs :
  • 211654Z AUTO 31010G17KT 10SM CLR 24/14 A2998 RMK AO2 SLP150 T02390144
  • 211554Z AUTO 31008KT 10SM CLR 24/12 A2998 RMK AO2 SLP149 T02390122

TAF KPLN
Valid from the 21 at 18:00 until the 22 at 18:00 UTC


211720Z 2118/2218 31011G18KT P6SM FEW040
FM220100 33008KT P6SM SCT250
FM220400 VRB03KT P6SM SCT180
FM220700 VRB03KT P6SM BKN180
FM221400 33010KT P6SM SCT180
KZMP FIR / North America



MET'MAP, your aeronautical weather chart ! - Copyright ORBIFLY December 2007 - Disclaimer

ORBIFLY MET'MAP TEAM :

Programming & Development : Alexandra Zaïnal
Concept & Development : Baudouin d'Aumeries
Co-Development & Prog : Marc-Olivier Méhu
Technical & hardware support : Manuel Goepfert

Contact : metmap@orbifly.com




SOURCES & CREDITS :

   NOAA       Earth
Advisory